Theta_e
343 344 346 346 346 346 347 346 346 347 348 350 351 349 351 350 353 353 353 355 356 355 356 353 353 353 354 351 349 353 357 362 360 361 361 360 363 366 368 366 371 371 372 373 369 364 366 364 368 366 364 366 364 361 362 363 367 366 360 364 358 356 354 354 351 354 351 350 352 347 350 352 352 348 351 351 350 350 348 347 348 355 354 354 356
343 343 345 345 346 345 347 346 348 345 347 350 351 349 352 350 352 354 354 355 356 355 353 354 356 353 352 352 350 350 354 355 357 361 359 360 366 367 367 367 370 373 372 373 374 370 368 364 367 366 366 366 368 368 366 364 366 368 364 355 359 356 352 350 349 349 345 341 342 343 345 350 350 350 347 348 349 348 347 349 352 348 348 351 355
342 342 344 345 345 344 347 347 347 346 348 349 352 350 350 350 354 355 354 355 356 355 354 355 356 356 354 353 350 351 355 357 356 360 361 360 360 363 368 370 369 370 372 371 368 369 367 366 364 366 368 362 362 364 366 369 365 364 365 363 352 353 353 353 351 355 343 346 349 346 340 340 346 347 348 347 348 347 349 346 348 348 343 351 352
342 343 342 343 344 345 346 347 348 348 348 349 350 350 348 353 355 356 356 356 358 357 357 357 357 359 359 357 356 357 354 356 360 362 361 361 356 358 364 367 368 367 367 365 367 371 370 366 364 363 365 369 370 365 367 369 366 362 360 356 358 349 347 349 354 351 352 346 341 342 340 339 334 340 343 344 345 347 348 346 346 349 347 347 355
343 344 343 343 343 344 346 347 348 348 348 349 349 348 346 349 355 357 357 356 357 358 359 359 359 359 359 358 359 361 358 354 356 356 359 360 357 357 359 365 364 367 366 368 365 371 371 370 367 365 366 365 366 364 362 360 361 362 364 361 357 353 347 348 350 351 351 353 351 346 341 337 338 340 340 342 344 340 345 345 337 348 348 346 349
346 345 344 343 344 345 346 347 347 348 349 351 350 349 349 349 355 358 358 356 356 360 362 360 360 359 356 354 351 353 353 352 351 352 351 353 352 356 361 359 362 366 367 367 366 367 369 373 368 365 366 364 366 362 361 361 360 362 359 357 354 354 360 349 344 351 351 356 354 350 350 344 340 343 341 336 350 345 339 339 345 347 346 347 353
350 346 344 343 344 344 345 347 347 348 351 352 351 350 350 350 355 358 358 358 357 361 362 361 361 359 357 355 354 352 352 353 355 353 352 353 356 358 360 361 365 364 366 367 368 369 372 374 373 370 365 365 365 365 360 358 354 360 361 361 360 362 356 356 350 346 353 354 351 350 351 351 348 344 339 340 338 343 346 344 342 346 347 347 347
347 347 346 344 345 345 347 348 349 349 351 351 350 350 351 353 356 358 360 358 358 362 362 362 361 359 358 356 353 353 349 352 355 354 356 359 357 358 361 362 365 365 364 368 372 370 374 372 373 371 366 364 362 363 361 358 362 364 364 368 368 362 363 355 356 351 352 352 353 353 351 348 348 348 346 343 341 339 340 345 346 345 348 345 346
345 346 349 344 342 345 348 350 349 351 351 351 351 350 352 354 357 359 358 360 359 363 362 361 362 359 358 356 354 355 353 353 357 355 355 362 358 360 362 362 365 362 370 367 369 368 369 370 371 371 366 365 362 363 362 361 362 364 362 366 363 361 360 362 358 358 354 352 354 358 355 348 346 347 344 347 343 340 337 339 340 342 348 343 348
347 347 348 349 346 346 348 350 350 350 352 354 354 355 354 356 358 359 359 359 360 363 363 362 361 361 359 357 356 355 357 360 360 355 356 363 361 362 363 364 361 362 367 371 369 371 367 370 369 367 367 362 359 361 362 364 367 368 363 365 366 366 368 361 356 359 354 357 351 354 355 352 349 346 345 345 343 346 340 339 341 341 342 343 351
346 347 348 349 350 349 349 348 348 351 352 352 352 355 356 356 360 359 360 359 360 363 364 362 361 362 359 358 358 358 359 360 360 357 356 362 360 359 362 362 363 361 362 363 371 364 367 369 366 364 362 362 362 365 366 361 361 362 362 369 365 365 362 362 361 360 359 358 356 352 356 348 348 345 346 347 345 342 343 341 341 342 342 343 347
343 345 348 349 350 351 349 347 349 350 353 351 352 355 358 358 360 362 362 362 362 363 363 362 359 361 361 360 359 359 361 361 362 358 357 359 359 357 362 362 361 362 364 362 361 362 368 365 366 366 365 364 364 365 365 363 361 363 364 364 366 364 369 367 362 362 360 359 353 350 351 352 349 347 347 348 347 349 347 344 342 342 345 347 345
347 349 350 347 350 349 349 350 351 350 351 353 352 353 358 358 360 361 362 363 363 363 363 362 361 361 360 360 361 361 361 362 362 359 359 358 357 356 358 360 360 362 360 361 363 362 367 366 365 366 368 368 369 369 369 369 368 362 365 362 365 367 364 365 363 361 358 357 354 353 351 351 350 353 351 350 351 349 349 342 344 345 340 343 346
347 348 349 349 349 350 352 349 351 352 352 350 350 352 354 359 364 363 363 363 364 364 363 362 361 361 361 361 361 360 360 361 363 358 358 358 357 358 356 355 359 359 359 358 361 363 365 366 366 367 370 372 372 376 374 368 372 368 367 365 363 364 367 370 367 365 364 360 359 355 353 352 352 352 352 350 351 349 348 347 348 348 346 344 344
344 347 347 347 349 350 348 351 353 354 353 353 353 353 356 357 360 365 365 365 365 363 364 363 362 362 362 361 361 361 360 359 360 360 359 357 355 356 358 357 355 358 359 363 365 365 365 367 365 364 365 369 371 371 368 374 373 368 370 365 361 365 366 366 366 361 359 359 362 359 357 356 353 356 353 353 354 353 351 352 349 347 345 345 343
342 344 346 348 348 351 350 350 352 355 355 354 353 354 354 357 362 363 363 364 366 366 365 364 363 362 364 363 361 362 362 360 360 361 360 358 359 357 358 360 357 358 361 365 360 363 365 365 366 364 366 364 367 370 372 369 372 368 369 370 368 363 367 367 363 364 361 361 360 364 363 357 354 353 355 355 357 358 356 355 353 352 346 344 346
341 341 343 348 349 351 352 351 352 352 353 353 355 356 358 356 359 360 362 365 366 367 364 367 365 364 365 364 362 360 359 358 356 359 356 359 361 359 357 357 359 361 360 361 363 363 363 363 364 361 363 365 365 366 366 369 373 367 364 370 368 363 366 367 366 364 366 361 360 359 361 362 359 359 358 358 361 361 358 357 355 351 355 349 346
340 344 347 347 348 349 350 351 353 352 354 355 359 359 359 358 360 361 362 365 366 366 365 364 366 365 365 365 364 362 358 357 355 355 356 357 358 360 358 357 356 356 358 358 360 361 363 364 363 363 362 362 363 362 365 366 369 369 366 371 368 369 369 371 367 365 365 364 362 362 361 360 363 358 356 354 362 364 359 356 356 357 358 354 352
339 342 345 345 346 351 351 355 350 352 355 354 357 355 355 356 358 357 361 360 362 363 363 365 368 365 364 366 365 362 359 358 356 356 358 355 354 356 356 355 356 358 358 360 361 359 360 362 364 362 362 362 363 362 364 365 365 364 362 364 366 367 367 370 370 367 363 364 365 362 365 363 366 360 360 356 359 360 359 358 358 359 360 359 358
338 342 342 343 345 348 354 353 354 354 350 350 356 355 353 354 354 356 358 358 357 358 363 361 363 363 362 367 367 366 364 359 357 356 354 354 355 355 356 353 355 356 356 357 358 359 359 359 359 359 358 359 360 360 361 363 364 364 361 359 361 365 364 365 362 363 361 363 366 362 365 364 365 366 364 359 358 359 360 359 359 359 360 361 362
334 337 339 340 343 345 351 352 352 356 353 352 352 353 353 355 358 357 355 356 358 359 362 364 363 362 364 364 364 366 363 359 356 356 354 355 356 357 355 354 356 356 357 356 358 359 360 359 358 359 356 359 362 360 360 362 364 364 363 363 363 365 364 363 364 362 363 363 366 366 366 366 368 365 364 359 356 357 360 358 359 358 356 360 361
332 333 335 336 339 342 346 351 352 351 352 353 354 357 353 352 352 354 355 357 357 360 361 364 365 364 363 362 363 365 366 362 356 355 355 353 355 355 356 356 353 355 357 356 358 357 358 358 358 358 359 356 360 363 358 359 360 361 362 359 358 363 365 364 363 363 362 360 362 362 361 360 363 361 359 355 354 353 353 353 354 354 354 356 362
329 332 333 336 338 339 339 340 341 341 344 354 354 350 350 354 355 353 354 355 356 355 356 358 360 363 364 362 363 363 363 361 356 353 352 351 352 355 356 355 352 352 356 357 357 357 359 359 359 359 360 358 361 360 360 358 359 359 360 358 355 358 360 360 359 361 361 362 359 361 359 360 356 357 357 356 354 353 353 354 353 353 356 356 359
327 329 332 335 335 336 337 337 337 338 340 339 350 351 355 354 354 356 356 357 355 353 356 358 359 359 361 360 360 363 360 359 355 352 352 351 349 351 355 354 353 350 351 356 357 357 358 360 358 359 359 360 359 359 360 359 359 359 360 361 360 358 357 358 358 359 358 359 358 359 358 357 357 357 358 357 356 356 356 357 355 357 358 355 357
326 326 328 331 332 332 334 334 335 336 337 339 343 350 350 354 354 351 352 354 353 355 354 354 356 356 358 358 358 364 360 359 358 353 351 351 349 348 351 353 352 349 348 352 356 357 359 359 356 358 359 360 360 360 361 358 358 358 360 358 359 360 359 359 359 359 359 359 358 357 357 358 360 357 358 356 356 356 355 355 355 357 357 358 360
324 324 324 325 328 330 332 333 333 333 333 335 336 339 342 350 349 353 354 351 353 353 354 354 354 354 356 354 355 358 359 356 355 353 352 350 349 348 348 351 352 349 349 347 351 354 355 357 359 360 360 361 362 362 362 361 357 355 356 358 357 358 358 359 360 358 358 359 357 358 357 356 356 356 356 356 359 357 356 355 356 357 358 359 361
323 324 324 324 325 328 329 330 330 331 332 334 335 336 338 341 348 352 352 350 353 353 354 352 355 354 354 353 353 356 359 358 357 356 354 353 350 349 347 348 350 350 348 346 347 353 355 355 358 359 359 360 360 360 363 363 361 358 354 356 354 355 355 356 357 355 353 354 354 354 355 356 356 357 356 356 356 356 357 358 359 360 361 360 358
322 323 323 322 323 325 327 328 328 328 330 331 332 333 335 337 337 342 347 350 350 352 351 352 353 353 353 353 356 357 360 361 361 362 358 356 353 351 350 349 350 349 348 347 346 347 353 355 355 357 360 360 360 360 362 364 363 360 355 354 355 354 352 353 351 352 351 350 350 351 350 352 354 357 356 357 358 356 359 358 359 360 361 360 359
319 321 322 322 321 322 323 324 325 326 327 328 329 330 333 335 336 338 339 342 347 350 350 350 352 352 354 356 358 360 361 361 360 362 362 360 358 355 354 353 353 350 348 347 346 345 349 353 355 356 358 356 353 355 358 361 360 361 358 353 354 355 354 352 351 349 350 351 349 348 348 347 355 365 365 366 364 370 362 359 362 363 364 362 362
318 319 320 321 321 321 322 323 324 324 325 325 326 327 329 330 332 334 336 337 341 347 350 350 350 351 354 356 359 361 364 361 360 364 366 363 360 359 356 354 353 351 354 354 353 349 346 348 351 354 354 353 352 351 355 348 352 360 360 353 352 356 357 355 353 351 348 349 349 348 346 361 366 368 368 367 360 360 361 356 354 360 363 365 364
318 319 319 320 320 320 321 322 323 323 324 325 325 325 326 328 330 332 335 337 339 344 347 348 349 351 353 356 357 358 361 361 363 363 366 365 363 361 359 362 358 356 358 362 356 351 348 347 347 350 351 349 348 347 344 336 338 344 358 358 354 355 358 357 353 356 353 348 347 347 348 352 366 370 366 360 357 353 353 352 352 355 363 365 363
317 317 318 319 319 320 320 320 320 320 322 323 324 323 324 325 327 329 332 335 339 342 346 351 351 353 356 356 358 357 359 361 363 362 364 365 363 363 363 361 358 356 360 356 354 355 357 351 348 348 347 348 347 343 332 332 334 335 345 359 354 352 351 351 353 352 351 351 349 346 344 343 345 349 352 364 359 351 347 348 347 347 349 349 353
317 317 318 318 318 319 319 319 320 321 320 320 321 321 324 325 327 329 332 333 336 339 344 347 350 354 354 354 354 356 356 357 362 362 364 361 357 355 356 357 357 359 358 360 361 357 358 357 354 352 348 348 347 339 328 329 332 333 334 348 352 352 349 348 349 352 354 353 353 351 348 345 342 362 361 350 366 366 347 341 344 346 348 346 340
317 317 318 319 319 319 320 320 322 321 321 321 321 320 322 323 325 331 332 333 334 337 343 342 343 346 349 352 353 352 353 356 359 359 359 357 356 355 357 356 356 358 360 358 358 359 358 361 359 357 357 353 350 342 327 326 328 329 331 339 360 355 348 346 350 348 349 353 357 356 353 352 351 352 357 357 358 360 367 366 360 359 360 357 345
316 317 317 318 320 320 320 320 321 321 323 322 320 321 320 322 324 326 328 331 332 335 337 337 339 343 347 348 349 350 351 352 353 357 355 354 354 355 355 357 357 356 356 359 359 358 359 360 359 358 358 355 353 339 326 323 324 325 328 335 361 359 354 351 349 349 354 350 355 355 358 357 360 360 356 356 355 357 361 361 366 367 366 364 365
315 316 317 318 317 318 318 320 323 322 322 322 321 322 320 319 322 323 326 328 331 334 334 335 336 337 339 341 344 347 349 351 353 353 353 354 355 356 355 357 355 359 356 358 361 360 359 359 359 360 357 356 356 335 327 322 321 322 326 347 358 361 357 355 356 357 355 356 354 355 358 360 361 364 360 347 353 361 358 359 362 363 363 364 364
316 316 316 319 319 318 318 320 320 321 322 322 323 323 321 320 320 320 324 327 328 331 333 337 335 335 337 340 342 346 348 349 349 350 351 352 353 355 357 358 355 354 355 359 356 357 356 358 359 361 359 359 358 344 326 321 319 320 328 352 358 357 357 357 356 358 359 358 356 358 363 355 355 361 353 337 336 351 359 356 359 361 360 359 357
316 317 316 318 318 318 318 318 319 319 321 322 323 323 322 322 321 319 319 322 324 327 330 332 334 336 334 335 340 344 345 346 347 347 349 352 353 354 355 358 357 357 356 355 357 355 356 358 359 359 359 359 359 350 325 319 318 318 334 355 357 356 356 356 358 359 359 360 361 358 363 358 358 361 343 333 332 348 361 357 356 355 355 354 356
315 315 315 315 317 318 318 319 319 317 320 320 321 322 321 320 322 321 319 319 320 323 326 327 330 333 334 334 334 338 342 344 346 347 348 350 350 352 354 356 356 357 354 355 356 356 356 356 355 357 359 358 359 352 325 319 317 316 333 358 359 356 354 355 355 356 359 360 360 360 357 355 355 355 337 331 328 345 360 359 358 356 353 354 354
314 315 315 316 317 317 316 315 315 317 319 320 319 320 321 321 322 321 319 319 320 322 324 326 329 331 334 336 336 336 339 343 344 347 350 353 352 351 351 353 355 356 354 353 354 356 356 356 355 356 357 358 356 360 357 318 317 315 320 357 360 356 354 355 357 356 357 359 360 361 359 333 329 330 329 326 323 325 358 361 360 356 356 355 359
312 313 315 314 314 314 314 314 316 318 317 318 319 318 319 321 322 322 321 321 322 323 324 326 327 329 331 333 334 336 338 341 344 348 351 352 354 351 351 349 348 349 351 354 354 355 356 358 357 358 357 357 357 356 363 318 315 314 315 328 357 358 359 357 357 358 357 356 357 359 360 342 325 324 323 322 320 317 332 362 361 360 360 367 363
314 315 314 313 312 313 314 314 316 316 317 318 319 319 320 321 321 321 322 323 324 325 324 324 326 328 329 332 334 337 338 339 342 345 347 350 353 353 351 350 350 351 352 352 354 356 356 356 358 358 358 358 359 355 359 324 315 313 313 314 349 356 356 358 357 358 358 357 358 358 360 350 325 321 320 319 318 319 319 352 363 336 335 336 363
312 313 313 312 312 312 312 314 314 315 316 317 317 318 320 321 321 323 324 325 325 325 325 325 325 326 328 331 335 337 338 338 339 342 342 343 346 345 350 350 348 350 351 352 352 355 356 356 357 359 359 360 363 363 342 351 316 312 311 312 321 341 334 360 355 356 358 358 360 361 362 355 326 315 315 316 317 318 321 340 329 328 327 329 345
312 312 312 312 312 313 313 314 314 316 316 317 318 318 319 320 321 325 325 326 326 326 326 325 325 325 325 327 329 332 334 335 336 337 338 341 342 344 347 350 350 350 349 350 352 353 353 353 355 357 356 357 361 364 353 341 337 311 312 311 313 318 327 349 355 354 357 358 360 361 360 336 327 311 309 313 315 317 333 323 320 323 326 332 351
313 312 314 313 313 312 312 313 314 316 317 318 319 318 319 320 322 325 325 325 325 325 325 324 325 325 326 326 328 330 332 333 335 336 337 338 341 342 343 348 350 349 348 347 349 353 353 353 354 356 355 360 357 366 365 355 331 316 312 311 311 313 316 319 349 354 358 357 344 326 318 321 325 312 309 311 314 315 315 320 320 321 330 345 350
314 314 314 314 313 313 313 313 314 316 316 318 318 319 319 321 323 323 324 325 325 325 325 325 325 325 327 327 327 327 329 331 332 335 338 340 340 340 341 342 343 346 347 348 349 350 351 352 354 359 351 352 353 352 352 357 359 333 320 312 310 311 315 316 327 345 337 332 326 320 320 322 323 324 338 343 347 346 321 317 320 325 341 345 349
313 314 314 314 314 313 314 314 314 316 317 317 319 320 321 322 323 323 323 324 323 324 324 324 323 324 326 328 330 330 330 331 333 333 334 335 337 339 342 343 344 345 346 346 346 349 351 352 358 351 348 348 350 352 351 358 364 366 358 345 334 331 319 317 326 335 333 342 345 342 343 333 332 333 337 342 343 345 344 335 334 337 343 348 350
314 314 314 314 314 314 314 314 315 316 317 318 318 319 320 322 322 323 323 323 322 322 322 323 323 323 323 323 323 327 328 328 329 328 327 330 334 337 339 341 343 345 346 346 348 348 352 354 356 353 349 347 345 347 350 354 361 365 362 359 353 346 344 341 338 342 345 346 347 339 339 350 355 354 352 351 352 355 353 352 352 349 348 349 350
312 313 313 312 313 313 314 314 314 315 317 317 318 319 320 320 321 322 323 322 322 322 323 322 323 323 323 325 324 325 326 326 327 329 328 332 335 337 337 339 342 342 343 343 342 341 344 351 353 352 350 349 350 350 356 324 336 319 335 349 356 358 353 353 341 329 346 351 351 349 349 349 350 348 348 351 352 353 353 353 355 357 356 354 352
312 312 313 313 313 313 313 314 314 316 316 317 317 318 319 319 320 321 321 321 322 321 321 321 322 323 324 324 323 323 324 326 327 328 329 329 333 321 331 335 335 334 326 318 317 337 340 340 338 341 346 346 348 354 329 315 314 312 310 314 321 323 321 338 334 322 329 343 347 350 351 351 351 352 352 352 354 355 356 356 356 345 354 357 355
311 311 311 311 312 313 313 313 314 315 315 315 316 317 318 318 320 321 321 322 322 321 321 321 323 323 323 324 323 323 325 327 328 329 329 327 326 331 312 310 317 324 320 315 312 312 313 315 330 336 336 325 323 319 314 311 309 311 310 308 307 307 309 310 312 333 337 339 344 349 352 353 353 354 353 352 354 354 354 356 358 357 357 355 353
Wind_Speed
16 16 16 16 16 14 13 13 13 13 12 13 13 12 11 11 11 11 9 9 8 8 8 7 7 7 6 7 7 6 5 5 4 5 4 5 7 7 6 5 5 4 3 3 3 2 3 4 3 2 4 3 2 2 2 3 0 1 1 2 2 1 2 1 2 2 3 1 1 1 2 2 5 1 2 3 3 4 4 3 1 1 2 2 1
16 16 16 17 14 16 14 12 14 14 13 14 13 13 11 12 11 11 10 10 9 8 7 7 7 6 7 6 6 7 6 6 5 5 5 7 6 6 5 6 5 3 4 2 3 4 3 3 3 3 2 4 3 1 3 1 1 2 1 1 3 1 2 0 3 0 1 1 1 1 2 2 2 3 4 5 3 4 3 2 1 2 6 4 3
15 16 16 16 17 18 13 13 13 14 14 14 13 14 13 11 10 10 10 10 9 8 7 7 7 7 6 5 6 6 6 5 5 4 5 6 7 6 5 6 5 5 4 4 3 2 2 3 3 3 2 4 3 3 3 2 2 1 2 2 1 2 1 2 2 3 1 2 2 0 2 1 1 1 3 2 4 5 5 4 3 4 1 3 1
17 17 17 17 17 16 15 14 14 14 14 14 14 14 12 11 11 11 10 10 9 8 8 7 8 7 6 6 5 4 6 6 4 4 4 6 7 7 5 5 5 5 6 5 4 2 2 2 2 3 3 2 3 3 3 3 2 2 2 2 2 2 2 3 2 2 3 2 0 1 1 1 2 2 3 4 2 2 2 6 4 3 4 1 3
15 17 17 18 17 18 16 15 14 14 14 15 15 14 11 13 12 12 11 10 9 10 9 8 7 6 6 5 5 3 4 5 5 5 5 4 5 6 7 5 5 3 5 3 3 4 2 1 2 3 3 3 3 3 3 4 4 3 1 0 2 2 2 1 1 2 2 3 2 1 1 1 2 1 2 1 3 5 7 6 3 5 5 3 3
12 16 17 18 17 17 17 16 16 14 15 15 15 15 13 13 13 13 11 10 10 11 10 9 7 7 7 7 7 6 5 6 6 6 6 6 5 6 7 6 6 5 5 4 4 5 3 2 2 2 3 2 2 1 2 2 2 3 4 3 1 0 3 1 2 1 1 2 2 1 1 4 1 3 3 2 5 2 3 3 2 5 4 4 2
10 14 16 17 17 17 17 16 16 15 15 14 14 15 15 14 14 14 11 10 11 11 12 9 9 8 9 9 8 7 6 6 5 6 6 5 4 6 6 6 5 5 6 5 5 4 4 3 2 3 2 3 2 2 3 5 4 3 3 1 0 2 0 1 1 1 2 2 2 0 1 2 2 1 1 1 2 3 6 4 5 1 3 4 3
9 7 13 15 16 17 17 16 15 15 15 14 14 14 15 15 15 14 11 11 10 12 12 10 9 9 9 9 8 8 8 7 7 6 5 4 5 5 5 5 6 4 5 5 5 5 4 4 3 3 3 4 4 3 3 2 3 2 1 2 1 1 0 2 2 1 1 1 2 2 2 3 2 2 1 1 0 2 2 4 5 3 4 4 1
11 7 5 10 15 15 15 15 14 16 15 14 14 14 14 15 15 14 13 12 11 14 12 12 10 9 9 8 7 7 7 7 6 7 5 4 5 4 4 5 5 5 4 6 5 6 5 4 5 2 4 2 4 3 3 2 2 3 3 2 2 2 3 0 2 2 3 0 1 1 3 1 2 2 3 2 1 1 4 3 3 1 1 2 3
9 10 12 9 10 15 15 14 15 14 15 13 14 14 15 14 14 15 14 12 12 14 13 13 12 10 9 9 9 7 6 5 6 7 6 6 5 5 5 4 6 6 6 5 6 5 6 5 5 6 3 4 4 3 2 3 2 3 3 3 2 2 1 2 3 2 1 4 1 1 1 1 1 2 3 3 4 1 2 1 4 4 2 1 1
8 8 9 12 11 14 17 17 16 15 12 13 14 13 15 15 15 16 14 12 13 13 14 14 12 10 10 10 10 9 8 7 7 7 7 6 6 7 6 5 4 6 6 6 6 6 6 5 5 5 6 2 4 2 3 4 5 4 5 3 2 3 2 3 3 2 2 2 2 0 2 2 1 1 2 5 1 2 2 4 2 3 5 5 1
10 12 14 11 14 15 13 15 14 13 9 10 12 13 11 12 14 15 15 14 13 13 14 13 12 11 10 11 11 9 9 7 8 8 8 8 8 7 6 5 5 6 5 5 6 7 6 5 5 4 3 6 4 3 3 3 2 4 3 3 3 3 3 2 3 4 3 3 3 2 3 3 2 3 2 4 0 3 3 3 1 1 4 2 1
17 15 12 12 11 13 15 13 12 15 15 13 10 8 7 13 15 16 15 14 13 14 14 13 12 12 11 11 10 9 9 8 8 8 8 8 7 7 7 6 6 6 6 6 7 7 6 5 5 4 3 3 2 2 1 1 2 2 3 3 3 3 4 4 4 5 3 3 3 2 2 2 2 1 2 2 3 2 3 2 6 4 2 2 2
9 10 12 12 14 13 11 13 13 14 15 16 16 14 13 11 14 15 15 14 13 13 14 13 13 12 11 11 10 9 9 9 8 8 8 8 7 7 8 8 7 7 6 7 6 6 6 6 6 5 5 4 3 3 2 3 3 3 4 3 3 3 3 3 4 4 3 3 4 1 3 1 2 2 1 3 3 3 1 2 2 4 7 3 2
9 10 11 11 11 12 12 9 7 10 14 14 14 13 10 12 12 13 14 15 14 14 13 14 12 13 12 10 10 10 9 9 8 7 8 8 8 8 7 7 7 7 6 6 6 6 7 6 6 6 6 5 5 5 5 4 5 4 2 4 4 5 3 3 4 4 4 3 3 2 3 2 2 2 2 2 3 2 1 2 2 4 4 5 3
9 8 8 9 11 11 9 8 8 8 11 12 14 12 11 10 14 14 13 14 14 14 13 14 13 12 12 12 12 10 9 9 8 7 7 8 8 7 8 7 6 6 7 6 8 7 6 7 7 7 6 7 6 6 5 5 5 6 4 4 6 3 4 4 4 4 3 3 3 2 2 2 2 3 2 1 0 2 3 2 0 1 3 3 4
7 8 8 9 6 6 5 6 7 8 9 12 12 11 12 14 14 15 14 14 13 13 14 13 14 13 13 13 12 12 12 11 10 11 10 9 8 8 8 8 7 5 7 7 7 7 7 7 7 7 7 6 7 7 6 6 5 6 6 5 5 5 4 4 4 3 3 3 4 3 3 2 2 2 3 3 1 2 2 2 2 2 2 2 3
4 7 8 9 8 7 8 10 8 7 10 14 9 9 8 9 13 14 13 13 13 12 13 13 14 13 13 13 13 12 12 12 11 11 10 9 9 8 8 8 9 8 6 6 7 8 7 7 7 6 7 8 7 7 7 7 7 4 6 5 5 4 3 3 4 4 4 3 3 2 3 2 2 3 4 4 2 2 2 3 1 1 1 2 2
2 6 6 3 7 15 14 11 11 9 2 8 7 10 8 9 6 10 12 9 11 13 12 8 11 11 11 13 14 12 11 11 10 10 10 10 11 10 10 8 9 8 7 6 7 8 8 7 7 7 7 7 7 7 7 7 7 6 7 6 6 6 5 4 4 4 4 4 3 4 2 3 2 2 4 3 1 2 3 3 2 1 2 2 2
3 7 6 6 1 3 10 10 6 8 8 1 6 3 4 5 6 5 5 7 10 14 12 14 15 13 12 12 12 12 11 11 10 10 10 11 11 11 11 11 10 9 9 9 8 8 8 9 9 8 8 9 8 8 8 7 7 6 6 6 5 6 6 5 5 5 4 4 4 4 3 3 3 3 3 3 3 3 4 4 3 3 3 3 2
10 7 8 8 10 5 5 7 5 4 5 7 6 4 4 5 9 14 15 17 17 14 11 11 10 12 12 13 13 13 14 12 12 12 12 11 11 10 11 10 9 9 9 10 10 9 8 8 9 9 9 8 8 8 7 7 7 7 6 6 5 5 6 6 5 6 6 4 4 4 4 4 4 4 3 4 4 4 4 4 4 4 5 4 4
10 8 8 9 9 10 10 4 3 6 5 7 7 6 7 11 10 12 12 12 13 10 9 9 10 9 11 11 12 12 13 12 13 12 13 11 11 11 10 10 11 11 10 10 10 10 10 9 9 9 8 9 8 7 8 8 8 7 8 7 7 6 6 6 6 6 6 5 5 5 6 6 5 6 5 5 6 6 5 6 5 5 4 4 4
9 8 7 7 7 9 11 13 13 14 11 0 4 5 10 12 13 13 12 11 10 12 12 10 10 8 10 9 10 12 12 13 14 13 14 13 12 12 11 11 11 11 11 10 10 11 10 10 10 9 8 8 7 9 8 8 7 8 8 8 7 8 8 8 8 7 7 6 7 6 7 6 6 6 6 6 6 6 6 5 5 3 3 4 3
11 9 8 8 10 11 12 13 13 13 13 14 5 1 3 2 2 4 2 5 7 9 10 9 9 9 10 10 11 11 12 13 14 13 14 14 13 13 12 12 12 11 12 11 11 11 10 10 11 10 10 9 9 9 9 9 8 8 8 8 8 7 7 8 8 7 8 7 7 7 8 7 6 6 6 5 5 6 5 4 5 5 5 5 5
12 13 12 13 14 15 13 12 12 11 11 10 8 4 6 6 2 6 7 7 6 6 8 10 10 11 11 11 11 11 12 12 13 13 15 14 14 13 12 13 12 12 12 12 11 11 10 10 11 11 11 10 10 10 10 10 9 9 9 9 8 8 8 8 7 7 7 7 7 8 7 7 7 7 7 7 7 7 6 6 6 5 5 5 5
12 12 14 14 13 12 13 13 11 12 10 9 8 10 9 8 6 4 4 5 7 8 6 5 9 11 10 12 12 12 13 14 14 15 14 14 14 14 13 13 13 13 12 12 12 12 11 11 11 11 12 11 10 10 11 11 11 10 9 9 9 9 9 9 9 9 8 8 8 8 8 8 8 8 7 7 6 7 6 7 7 6 5 4 5
13 13 12 12 13 15 14 14 12 12 12 10 11 11 12 11 9 5 3 3 6 6 6 8 10 9 9 11 13 13 12 12 12 13 14 13 14 14 14 14 13 13 13 13 13 13 12 12 12 12 12 12 11 11 10 11 11 10 10 10 10 10 10 9 9 10 9 9 10 9 9 9 9 8 9 8 7 8 7 7 7 6 6 6 7
12 12 14 13 13 13 14 13 14 13 12 12 11 12 12 12 11 10 8 6 7 7 4 7 7 7 7 9 8 8 9 8 9 11 13 13 12 13 13 12 12 14 13 14 14 14 13 12 13 13 12 11 12 12 11 11 11 11 11 11 10 11 11 11 10 10 10 10 10 10 10 10 10 9 9 9 8 7 6 7 6 6 6 7 7
13 13 12 13 13 13 13 13 13 13 13 13 12 12 12 11 11 10 10 10 9 6 8 7 9 9 9 7 8 9 10 9 12 13 12 12 12 11 11 11 11 12 12 13 14 14 14 14 13 13 13 13 13 13 11 12 12 12 11 12 11 12 12 11 11 11 11 10 10 10 10 10 9 10 13 10 8 4 4 6 5 6 6 6 6
13 12 12 11 12 12 12 12 13 13 13 13 12 12 11 11 10 9 9 10 9 6 5 8 9 7 8 7 7 6 7 8 12 11 9 10 12 11 11 12 12 12 11 10 10 11 13 14 14 14 13 13 12 11 12 15 13 11 12 11 11 11 11 11 10 10 11 11 11 11 11 12 9 7 8 10 11 10 8 8 6 5 6 6 7
11 11 11 11 11 11 11 11 11 12 12 11 10 10 10 11 10 10 9 8 8 8 4 6 8 9 8 8 8 7 6 6 8 9 9 9 10 11 11 9 11 11 10 9 10 12 13 13 14 14 14 13 13 12 15 16 16 14 11 11 11 10 11 11 12 10 10 11 11 12 11 11 9 7 8 12 12 13 14 14 13 11 8 7 7
11 11 11 12 12 12 12 12 12 12 12 11 10 10 10 10 10 10 10 9 8 8 8 5 5 7 8 8 7 7 7 8 6 8 7 6 8 10 10 11 12 14 11 13 13 13 11 13 12 14 14 14 13 13 15 18 17 17 14 11 11 11 11 11 12 12 11 11 12 12 12 11 11 12 12 11 13 15 15 15 15 14 14 14 11
10 10 11 11 11 11 12 12 11 11 10 10 10 9 9 8 8 8 7 9 9 9 8 8 7 6 8 7 7 7 7 7 6 6 3 0 3 11 13 13 13 12 12 12 12 13 13 13 13 13 13 14 13 15 15 18 19 19 19 15 12 11 12 12 12 12 12 11 11 11 12 11 11 12 11 12 9 12 14 17 16 15 14 14 14
9 10 10 9 9 10 10 11 10 11 10 10 10 9 8 8 7 6 7 7 8 8 8 9 9 10 9 9 7 6 7 8 6 3 3 2 3 7 6 10 15 12 12 12 14 14 13 12 12 13 12 13 14 13 16 18 19 20 20 16 12 12 13 13 12 12 12 13 12 11 11 11 11 11 8 8 9 10 9 10 10 9 10 13 15
8 9 9 9 8 9 10 11 10 10 9 9 10 10 9 9 8 7 7 7 7 6 7 9 9 9 9 8 9 8 8 7 6 5 3 5 6 6 7 7 8 12 14 11 12 14 13 13 14 13 13 14 14 14 13 18 19 20 20 16 12 12 12 12 12 12 11 13 12 12 12 13 11 10 10 10 11 10 10 10 10 11 11 12 12
7 8 7 8 8 9 10 9 8 8 8 9 10 10 10 10 9 8 8 8 7 6 6 8 9 10 11 10 10 9 9 9 7 4 6 6 5 5 4 2 6 9 10 12 12 11 11 13 13 14 14 14 14 16 14 15 17 18 18 11 10 11 12 12 12 12 12 11 12 13 11 12 11 11 11 13 11 10 11 11 12 12 11 11 11
6 7 7 6 7 9 10 9 8 8 8 9 9 9 10 10 10 9 8 8 7 6 6 5 7 9 8 10 11 10 9 8 8 9 7 6 6 4 3 3 5 7 10 8 7 8 10 13 13 13 15 14 14 14 15 17 17 17 12 9 9 10 11 12 13 12 12 13 13 12 12 13 14 12 12 13 13 11 11 12 11 12 11 11 11
5 5 6 6 8 9 9 8 8 8 8 9 9 9 9 8 9 10 10 9 9 8 8 8 7 7 9 9 8 10 9 7 7 7 8 7 5 6 7 6 7 7 8 9 10 10 10 11 15 17 16 15 15 14 15 16 17 18 16 10 10 11 12 12 12 13 12 11 13 17 15 14 14 13 13 14 14 12 11 13 13 13 13 13 12
5 6 7 8 9 9 9 8 8 9 9 10 10 9 8 9 8 9 9 8 8 9 9 9 8 7 8 9 9 8 9 9 7 6 5 5 4 5 5 5 7 7 6 5 7 8 9 10 12 13 15 17 16 14 16 18 19 20 17 10 10 11 11 13 12 12 12 12 13 13 17 16 15 14 13 11 14 12 12 13 13 13 13 14 12
7 7 8 8 7 7 7 9 9 9 10 10 9 8 8 8 8 9 9 9 8 8 9 9 9 9 8 6 7 10 9 8 9 9 7 3 4 6 7 7 8 8 9 8 8 10 12 13 13 13 13 15 17 15 12 19 19 20 21 12 9 11 13 13 12 11 10 12 12 12 13 18 20 19 16 12 12 14 12 12 12 12 13 14 11
10 10 11 8 8 8 8 9 8 8 9 9 8 8 9 9 9 9 9 10 9 9 8 8 8 9 9 9 7 5 6 8 7 8 9 8 6 6 6 7 9 10 10 11 12 12 13 12 14 14 14 15 14 16 13 18 18 20 21 17 10 12 12 11 11 10 11 12 12 11 12 14 19 20 19 18 13 13 13 11 12 12 12 7 4
7 9 10 10 11 11 11 10 9 10 9 9 9 9 9 9 9 10 10 10 10 9 9 9 8 9 9 9 9 8 7 4 4 6 7 7 8 8 7 7 8 9 11 12 11 12 13 14 13 14 15 14 14 14 14 15 20 21 20 22 13 14 14 11 11 11 11 12 12 11 11 10 16 19 20 20 20 16 17 11 14 16 15 12 10
7 7 7 8 9 12 13 13 11 11 10 10 11 11 10 9 10 11 10 10 10 10 10 10 9 9 8 8 8 8 7 5 5 6 8 9 8 8 7 8 9 9 11 13 13 11 13 15 15 14 13 12 11 9 12 8 17 20 21 22 22 17 13 11 12 12 12 11 11 11 11 11 12 16 18 19 19 20 16 13 19 19 16 15 9
7 8 9 10 10 10 11 12 12 11 11 10 10 11 11 11 12 10 10 10 10 10 10 11 10 9 9 9 9 9 8 8 8 8 8 9 9 8 8 8 8 8 9 10 10 10 10 13 16 15 13 13 11 8 8 7 10 19 19 21 22 21 16 13 13 13 12 11 10 11 8 7 9 14 15 17 18 17 14 19 20 19 17 13 8
6 8 9 9 10 11 12 13 13 13 12 11 10 11 12 13 11 10 10 10 10 10 10 11 11 10 10 10 10 9 9 9 9 9 9 8 9 8 8 8 8 10 10 11 11 11 11 12 13 15 12 9 9 8 10 7 3 14 18 20 21 21 21 17 14 14 12 12 10 3 6 5 2 7 11 13 13 16 20 20 19 19 16 9 9
7 7 7 9 10 11 12 13 13 13 13 11 11 11 13 13 12 11 11 11 11 11 11 11 10 10 10 11 11 11 11 10 10 9 9 9 9 9 9 9 9 9 9 10 10 11 11 11 10 5 6 8 8 6 9 12 6 6 7 7 9 11 15 18 18 16 16 13 12 12 8 4 4 4 4 5 7 9 15 18 18 15 9 10 9
8 8 8 8 9 10 11 12 13 13 12 12 12 11 11 11 12 12 12 11 11 11 11 11 12 11 11 10 11 9 9 9 9 9 9 10 10 10 9 10 9 9 9 10 11 11 11 10 4 2 5 6 9 7 8 8 7 4 4 7 10 9 9 6 10 11 12 11 13 10 9 11 10 7 9 8 10 9 10 10 8 8 10 10 11
10 10 10 9 9 9 10 11 11 11 11 12 12 13 13 12 12 13 13 13 13 12 12 12 13 12 11 11 11 12 12 10 10 10 10 9 9 9 9 9 9 9 9 9 9 9 8 7 5 4 5 6 7 7 7 8 7 3 1 3 5 6 6 6 8 9 10 11 9 9 12 12 10 10 11 9 11 11 12 11 10 10 11 12 14
12 12 12 11 11 11 11 12 12 11 12 12 13 13 13 14 13 12 12 13 13 14 13 14 13 12 12 11 11 11 11 11 11 11 10 9 9 9 10 10 11 10 9 9 9 9 9 7 6 7 7 6 6 7 7 4 3 4 3 5 5 1 3 6 9 12 10 6 7 10 12 11 11 13 13 13 13 13 13 13 15 13 11 12 12
12 11 12 13 13 13 13 13 11 11 11 11 13 13 13 14 14 13 13 13 13 13 14 13 12 12 11 11 10 10 11 10 10 10 10 10 10 10 10 11 12 12 13 13 9 11 11 10 11 11 8 8 7 4 5 10 16 16 12 5 6 7 7 8 7 12 10 8 9 9 10 12 12 12 12 13 13 12 12 12 12 13 12 12 12
11 12 13 14 14 14 14 14 13 11 12 12 12 12 12 13 13 13 13 13 13 12 12 12 12 11 11 11 11 11 10 10 10 10 10 11 12 11 12 16 15 15 14 16 17 18 19 18 12 11 11 14 15 16 15 14 14 16 16 11 8 11 14 14 13 7 6 9 11 11 11 11 11 11 12 13 12 12 11 12 12 12 13 14 12
Wind_Direction
168 172 170 170 165 173 163 167 166 168 163 156 164 165 165 161 158 159 161 156 163 159 169 174 166 180 169 179 171 169 176 155 180 151 155 137 140 137 150 131 136 141 141 165 138 131 142 148 142 153 143 117 133 114 90 82 73 82 100 238 183 215 181 225 99 27 26 52 305 22 151 213 145 213 212 190 173 165 138 186 39 161 96 156 179
167 169 172 169 172 171 164 170 170 170 169 163 171 167 167 168 164 161 165 163 170 168 167 179 172 181 171 185 177 165 171 175 176 173 160 132 138 138 161 130 145 142 146 148 137 166 155 131 145 124 132 121 108 351 104 135 167 264 194 170 234 117 145 267 69 80 202 62 72 55 38 67 32 184 202 178 171 119 125 105 352 176 187 168 148
170 171 174 173 173 170 169 171 174 174 172 171 173 168 171 170 166 168 167 164 175 170 169 178 180 180 180 184 185 167 169 178 179 168 161 147 154 165 147 140 149 147 148 157 158 174 140 123 138 155 141 126 149 155 148 167 204 154 244 245 135 176 73 80 122 303 102 53 66 277 102 129 120 250 235 169 201 131 177 155 206 152 68 160 261
175 174 176 176 174 173 171 174 175 175 176 175 176 173 173 171 169 171 170 173 172 171 176 176 177 175 191 180 195 176 170 175 172 171 179 160 161 163 156 157 172 159 153 173 148 107 125 169 127 141 138 145 139 191 148 184 159 231 231 149 269 168 144 149 129 79 346 97 113 43 147 103 100 128 164 154 112 215 207 157 159 183 133 20 198
181 176 179 177 178 175 175 174 177 177 178 177 182 176 176 174 171 172 172 178 171 168 180 169 164 168 188 176 182 155 167 173 178 177 183 175 177 168 164 170 172 168 149 168 142 141 149 176 141 144 144 169 159 162 193 169 202 167 317 319 254 4 148 84 262 132 99 355 6 263 86 104 28 106 111 344 209 154 185 132 92 277 123 75 271
188 180 182 179 180 176 175 177 181 180 179 181 185 178 178 172 172 173 173 179 174 168 178 170 166 174 173 173 184 177 178 184 185 186 184 181 196 172 158 180 171 173 164 166 156 152 167 158 191 175 158 163 206 210 162 128 191 207 147 247 121 174 17 179 147 307 64 125 193 119 358 16 20 346 286 142 292 86 98 57 171 213 126 125 239
200 184 184 182 184 180 176 181 184 183 180 181 185 179 179 171 172 175 174 177 176 168 177 173 170 180 179 180 185 183 186 190 184 197 191 184 191 178 156 173 170 186 158 178 147 154 167 162 188 225 176 155 192 180 186 221 145 188 146 198 88 69 357 47 256 118 22 235 213 188 124 343 93 124 42 186 162 357 319 177 121 355 152 168 165
194 197 195 190 185 184 182 179 188 184 179 179 184 177 179 171 172 176 175 176 178 169 177 176 178 180 182 191 186 192 189 186 184 195 201 183 187 183 160 172 164 202 153 159 156 163 170 175 190 231 213 177 173 206 208 168 129 111 141 121 38 190 258 289 327 20 235 210 58 323 113 73 344 328 75 96 16 138 176 296 137 183 157 113 131
191 185 216 198 190 190 182 183 191 188 181 180 182 175 175 172 172 177 175 178 178 172 177 179 181 181 184 191 188 195 190 186 182 190 193 185 192 175 170 168 164 176 171 159 173 172 175 172 186 221 228 185 205 178 208 135 153 126 162 187 193 198 221 276 285 288 281 166 112 347 19 315 240 165 142 263 329 232 160 137 26 32 239 99 24
197 201 198 197 202 190 180 184 197 195 190 184 180 175 172 170 173 177 176 178 178 174 179 180 183 182 187 193 190 189 194 183 187 180 184 183 188 182 173 178 170 173 172 172 164 181 177 176 183 203 192 217 210 143 154 116 144 156 190 191 199 186 216 220 219 235 243 298 176 113 43 353 323 316 265 195 117 288 322 259 151 166 184 15 219
207 206 215 193 196 208 180 187 196 201 176 192 192 180 172 173 173 177 176 179 177 177 180 182 185 185 188 191 192 189 191 184 182 182 181 184 189 190 184 190 189 174 176 175 176 186 172 184 197 176 211 103 262 137 179 199 169 179 183 155 182 222 204 237 257 259 261 284 288 159 261 199 168 257 306 2 304 179 290 284 113 3 9 120 68
201 214 208 192 198 193 181 188 194 205 167 183 207 174 184 173 173 177 178 180 177 178 181 183 187 188 190 190 192 196 190 190 185 183 186 188 188 197 192 186 198 180 182 163 197 184 167 185 203 182 195 181 195 219 184 210 179 159 161 154 190 215 256 267 275 288 260 170 277 228 215 241 153 241 193 153 285 353 315 312 19 136 266 93 130
199 168 193 164 204 182 187 195 179 196 187 185 180 195 174 180 180 180 181 182 179 180 183 185 188 189 191 190 194 195 196 196 190 192 187 191 194 194 192 196 195 194 182 154 226 188 167 179 188 197 180 209 202 193 218 183 263 186 151 188 192 190 212 222 228 228 227 256 223 210 270 256 249 243 277 251 109 138 242 315 339 342 229 155 20
184 179 185 179 192 191 200 179 191 190 192 186 185 187 172 183 179 185 182 182 180 182 184 186 188 189 190 192 193 191 198 196 198 199 194 193 194 200 198 194 193 202 194 189 190 177 184 175 184 191 183 191 188 193 186 206 234 247 162 214 229 194 221 210 247 255 254 242 260 254 233 243 273 252 182 238 226 180 269 3 13 320 300 80 112
168 195 182 185 188 191 194 194 189 201 191 196 180 179 164 185 183 190 183 183 182 184 185 188 188 189 189 193 192 194 195 197 201 202 201 201 197 196 208 204 194 198 200 186 194 181 187 179 181 196 185 190 190 194 206 199 204 233 223 184 209 211 208 225 242 237 240 238 257 251 287 253 259 265 275 299 333 35 18 21 20 332 337 317 143
169 173 176 191 193 191 195 188 194 212 205 199 185 180 167 189 183 186 190 186 186 185 186 187 190 189 190 191 193 195 194 198 195 201 204 206 201 205 198 216 212 198 189 192 187 189 188 186 185 196 193 189 195 200 208 209 206 217 216 215 222 206 201 204 236 264 255 257 262 269 289 282 246 252 287 276 343 15 11 352 277 303 334 332 352
171 194 187 166 185 220 205 220 191 193 205 210 196 184 187 175 181 182 189 189 184 189 192 188 188 190 189 190 193 192 196 200 197 195 203 201 200 206 200 204 215 207 191 190 194 190 192 197 195 197 190 201 199 200 203 218 211 213 220 208 224 221 204 219 252 254 274 245 226 232 236 241 254 313 287 267 104 4 301 325 325 345 33 308 311
152 143 173 174 182 203 201 217 203 198 201 208 191 181 193 176 178 180 181 187 184 189 191 197 192 190 188 192 193 195 196 201 200 197 202 197 197 202 210 200 205 207 210 193 189 193 196 200 201 209 199 199 208 202 201 209 219 227 241 216 218 238 231 215 232 254 249 237 268 233 225 245 245 231 209 251 136 200 245 247 251 57 139 288 335
138 112 83 81 195 184 180 168 183 195 249 250 191 204 201 199 166 189 177 186 197 191 197 200 208 189 188 192 192 196 198 197 202 198 196 201 201 195 209 205 204 207 198 213 202 196 195 195 210 208 210 206 202 215 201 210 214 217 227 222 209 211 229 233 233 230 246 243 241 249 245 262 268 279 305 282 268 192 223 244 275 244 263 288 286
46 109 78 54 71 184 163 156 174 136 136 253 298 247 199 186 173 198 188 184 212 209 203 200 199 196 191 187 192 195 196 196 198 199 199 198 203 200 201 205 208 204 202 200 213 216 195 201 198 211 211 203 207 209 208 204 212 222 228 230 205 201 216 226 236 233 236 217 231 238 246 259 255 260 246 273 259 255 276 270 246 225 219 243 256
32 42 57 45 45 60 157 153 143 135 165 184 176 205 280 255 201 189 186 197 194 197 196 207 208 207 194 191 192 192 196 195 197 197 202 199 198 205 201 207 199 210 206 200 202 212 214 209 214 205 213 206 203 207 208 206 205 215 229 236 244 205 213 219 221 241 247 239 228 243 250 248 257 258 269 260 266 240 226 234 243 237 236 222 221
38 37 45 39 36 66 69 115 183 192 177 191 180 133 191 231 229 220 189 194 196 188 216 195 204 200 209 204 200 193 196 198 199 195 200 199 200 200 204 205 204 200 210 209 200 205 207 215 215 218 217 212 197 206 216 209 207 212 219 216 220 229 221 228 234 227 233 246 237 225 239 243 232 242 244 250 249 252 236 232 209 224 238 240 213
51 53 48 52 57 46 53 49 58 57 46 328 192 177 180 216 228 201 179 202 193 178 202 194 211 204 210 215 218 203 203 203 204 200 200 202 199 199 200 205 207 202 199 212 206 208 202 204 216 216 216 224 205 202 215 222 215 212 218 229 226 207 214 222 221 228 233 230 235 235 234 234 237 228 226 240 259 268 279 289 292 282 273 262 237
58 50 50 49 46 41 42 44 42 49 41 23 26 338 345 355 292 322 255 201 198 197 182 187 199 208 201 195 222 223 214 212 209 208 204 205 200 199 198 204 206 210 200 199 212 211 205 202 207 213 215 215 214 211 212 216 219 220 218 217 232 236 223 221 231 231 226 226 232 231 237 238 241 246 245 249 257 263 260 254 258 257 264 272 289
55 50 40 41 42 39 38 44 46 56 53 38 21 139 135 86 202 188 193 233 227 202 197 197 201 203 206 211 218 225 217 214 223 217 207 205 205 200 195 204 207 211 211 197 199 211 210 204 208 209 212 212 214 213 212 218 216 215 218 222 220 226 230 233 232 232 235 236 236 241 237 236 237 244 245 241 240 240 243 252 247 238 242 247 250
51 50 47 42 39 41 39 39 42 42 48 52 51 24 44 117 88 27 214 215 229 216 182 204 217 210 214 219 220 217 216 214 217 223 214 208 207 208 197 197 207 208 212 210 196 200 208 207 209 211 211 212 213 214 214 219 221 217 215 221 220 223 223 225 227 227 229 229 233 233 238 238 240 239 243 243 243 248 249 244 249 265 272 261 249
50 48 52 49 40 40 40 38 41 42 37 36 27 31 34 33 67 89 339 275 215 194 206 205 208 218 220 227 220 217 216 212 219 229 227 213 212 208 208 201 198 209 210 213 205 199 201 207 207 211 213 212 212 215 217 216 222 225 220 218 222 220 221 221 221 227 228 224 226 231 231 235 238 240 243 244 240 237 244 253 255 254 248 252 255
63 51 43 44 43 38 35 36 37 38 38 34 31 28 26 32 30 27 27 357 1 349 286 227 236 230 237 239 231 224 241 216 219 230 229 227 219 216 211 210 197 202 212 213 214 203 200 205 207 209 212 213 212 215 216 219 219 221 221 221 221 226 221 220 224 222 228 230 227 229 232 225 224 228 235 242 246 250 244 247 243 240 244 247 257
62 61 55 43 41 36 33 30 31 33 34 34 30 25 24 28 23 25 13 16 358 330 333 301 224 227 223 215 234 225 219 229 229 223 219 222 228 225 222 217 208 205 207 215 217 213 203 205 207 208 209 213 214 214 216 214 216 216 222 222 220 222 226 228 227 227 224 230 239 242 238 241 228 207 211 220 244 278 262 246 242 247 251 252 252
58 52 54 55 48 43 32 30 28 28 29 31 29 23 23 23 21 20 9 7 347 342 317 324 321 252 235 242 242 268 280 249 228 219 225 220 223 229 225 223 223 214 208 211 221 219 217 207 209 209 210 212 215 218 208 207 207 214 215 223 221 221 225 227 227 232 238 234 233 237 243 240 240 223 195 197 211 228 242 252 258 256 248 247 247
56 49 49 51 51 44 39 34 33 29 27 32 24 23 19 22 16 15 11 5 350 346 307 287 290 310 276 256 251 254 258 255 265 251 221 231 238 225 229 230 228 229 219 211 221 225 225 221 212 213 213 215 218 218 197 190 198 213 222 219 226 225 221 225 228 226 232 238 240 240 244 244 229 191 195 196 206 215 219 228 238 241 250 252 251
51 45 39 38 38 37 31 28 30 28 27 24 21 20 17 14 11 11 5 5 357 343 343 331 284 288 305 304 305 283 257 259 258 259 279 299 285 256 235 228 224 223 222 222 219 223 232 232 227 223 220 220 222 220 189 185 191 199 210 223 224 225 226 223 226 231 230 233 238 242 243 244 238 232 233 207 208 213 218 223 227 231 234 240 243
48 47 37 32 30 29 26 19 20 22 23 22 19 15 15 8 8 4 10 3 360 352 347 343 339 336 337 318 302 296 293 283 290 306 341 174 267 292 285 265 237 226 225 221 224 223 222 231 237 237 234 228 228 217 186 186 189 195 201 211 228 231 229 230 228 226 233 236 238 239 245 247 251 233 213 229 211 210 218 222 225 227 232 233 234
46 42 43 30 30 23 23 17 12 16 12 12 18 8 7 6 1 0 15 9 4 352 353 352 347 343 335 338 351 354 308 282 285 297 315 273 237 249 261 287 294 270 233 226 224 223 225 226 232 237 241 242 237 221 184 186 191 194 199 201 220 228 235 239 238 237 235 233 231 239 241 242 243 247 245 233 228 230 218 212 220 225 228 228 227
42 37 32 27 29 20 20 12 8 6 5 5 10 2 358 4 356 4 9 3 357 0 360 359 351 341 342 336 337 349 343 335 288 297 297 286 277 260 256 266 273 290 281 252 235 226 221 224 227 230 235 237 235 237 187 190 191 194 198 198 213 221 232 239 244 244 245 246 242 236 236 240 241 240 238 232 234 229 230 233 227 224 222 230 226
27 29 29 19 19 15 12 2 355 359 5 10 4 353 354 356 352 1 3 350 345 355 4 5 356 345 348 346 341 344 345 342 9 304 286 273 262 262 277 292 290 290 299 303 313 304 264 234 228 231 233 234 238 227 199 191 197 198 192 195 209 217 226 235 239 243 244 242 242 243 243 241 239 239 231 225 226 234 236 234 236 238 240 238 237
24 17 15 17 18 4 4 345 353 351 3 8 354 350 350 346 352 355 352 349 336 348 14 18 359 337 342 341 336 341 342 347 343 332 324 296 281 284 239 213 234 240 241 224 247 249 274 278 252 234 232 235 237 226 202 191 192 192 180 202 207 216 224 230 237 236 237 238 239 239 237 243 241 238 232 213 215 218 234 241 243 244 246 248 247
10 9 357 13 11 353 346 341 340 343 4 355 341 345 341 340 347 349 345 345 343 353 358 358 358 333 331 342 338 332 341 349 337 326 321 341 319 267 253 232 226 238 245 238 222 228 233 244 251 240 230 229 233 225 197 192 190 180 183 195 203 213 224 228 232 233 236 238 237 233 236 239 241 241 231 210 206 201 225 234 241 247 248 248 249
7 358 359 8 356 339 326 329 335 342 354 338 334 338 330 337 341 338 337 341 344 349 351 345 339 335 330 335 336 342 340 342 337 324 322 323 310 305 294 270 254 248 249 260 262 256 252 253 262 263 253 239 236 229 194 191 188 183 190 198 202 213 222 228 228 231 229 233 237 232 227 231 237 241 236 216 203 199 222 230 237 242 246 249 248
348 355 9 346 328 315 326 333 335 347 334 327 331 327 326 328 329 326 330 333 341 348 339 332 333 326 324 326 332 333 340 345 332 329 321 298 289 287 289 288 282 281 275 259 243 241 242 242 244 253 260 253 244 244 206 191 186 187 191 199 207 211 226 226 229 233 235 233 234 237 225 216 226 232 236 223 202 205 218 231 237 241 245 246 250
341 352 348 330 330 337 335 327 335 333 322 321 325 322 321 322 319 315 320 324 332 335 330 332 325 322 320 322 319 313 324 328 327 322 320 309 281 267 275 285 281 273 273 270 260 254 250 248 241 241 245 247 247 242 220 183 191 188 193 200 207 217 222 229 233 233 236 240 241 238 244 214 210 220 224 224 207 206 219 232 236 244 243 260 327
347 344 329 332 331 331 328 327 331 319 322 326 324 319 318 315 310 309 312 319 323 322 327 323 321 314 314 314 313 315 311 303 285 280 284 280 280 279 276 280 283 280 272 264 268 266 261 254 249 242 241 243 248 253 247 181 188 189 193 199 209 220 221 226 232 238 239 241 241 245 248 228 202 210 214 216 215 207 212 218 236 239 247 254 260
329 318 331 332 329 326 325 324 323 326 330 324 318 315 312 309 304 307 309 309 313 315 316 316 312 308 305 300 297 298 298 287 271 260 261 270 272 275 266 257 260 263 266 266 260 261 264 261 258 254 249 246 248 258 260 221 189 191 191 197 209 218 214 222 236 239 238 242 243 247 251 244 200 202 207 212 213 215 212 224 232 237 239 242 244
322 328 329 336 322 317 315 316 318 320 319 319 318 313 309 305 302 307 305 304 302 304 309 308 306 303 305 302 302 299 294 290 289 282 273 267 272 273 267 263 263 262 270 268 262 255 255 263 261 255 251 250 250 250 249 239 186 195 194 197 205 217 221 226 232 244 244 245 247 248 255 271 225 195 200 205 210 210 215 222 228 233 237 238 240
324 322 330 320 320 317 312 308 309 315 317 315 312 304 302 300 307 310 308 305 302 300 300 299 301 303 302 303 299 294 288 284 281 281 281 278 272 271 272 267 255 261 263 264 264 260 256 255 258 261 265 275 280 322 307 329 228 195 201 202 205 212 222 228 233 238 251 254 263 67 72 69 103 193 206 207 209 213 217 223 223 226 228 232 231
315 314 326 321 309 304 304 305 305 306 306 307 307 308 306 307 310 308 304 300 297 295 292 292 294 293 293 293 291 288 287 286 283 277 273 269 270 265 258 258 260 261 263 263 263 260 261 261 260 290 309 312 334 338 281 260 242 174 209 241 259 254 241 229 227 239 243 258 283 303 303 289 226 177 192 209 219 215 217 222 225 221 218 222 222
310 312 312 305 305 301 299 300 298 302 305 304 306 304 302 303 302 302 301 299 299 294 292 291 288 287 283 279 278 277 278 279 278 276 269 265 259 253 252 254 253 259 263 268 271 270 266 264 265 171 220 239 240 243 251 279 285 270 186 175 186 203 215 279 291 273 286 282 277 274 280 284 291 252 224 236 233 220 205 213 220 214 218 220 217
312 311 308 304 299 295 294 295 295 298 299 300 300 301 301 301 300 300 300 298 294 290 288 287 287 287 285 281 278 276 275 271 270 271 273 274 275 272 268 261 261 260 259 259 267 283 291 274 271 251 232 237 254 257 269 269 273 257 247 230 235 232 218 189 214 231 231 243 247 270 269 263 258 262 250 246 244 241 237 227 217 206 210 215 218
306 307 310 304 303 299 296 293 291 293 294 294 294 295 296 296 295 293 292 290 288 288 287 285 285 284 281 280 278 275 272 273 272 270 265 269 275 279 281 286 287 294 300 315 325 312 306 304 304 278 255 250 233 236 251 53 47 57 50 347 328 318 231 218 217 230 250 241 221 234 247 247 245 245 248 248 247 241 234 230 230 229 218 211 213
302 302 301 302 301 299 295 292 289 288 286 286 289 290 292 293 294 295 294 292 291 289 287 285 285 282 281 282 281 281 281 279 277 274 279 280 267 252 254 267 276 284 298 301 295 285 287 293 288 283 289 290 291 307 337 305 297 299 296 224 231 256 256 263 248 221 222 248 245 239 231 236 240 241 245 243 241 238 236 230 226 221 224 227 223
298 301 300 297 297 295 294 292 289 288 285 283 282 281 282 285 288 291 290 289 289 289 285 283 280 274 276 281 284 285 284 282 281 280 282 283 284 271 233 228 239 250 256 259 261 266 271 269 257 275 273 257 261 264 265 272 279 282 284 278 225 222 249 255 255 244 225 226 245 241 239 241 243 244 245 246 246 248 248 246 240 230 219 220 225